Stations météo

Publicité
Le Havre/Octeville, France (7046): Température de l'air & dewpoint: 21.10.2020 18:00:00 - 27.10.2020 18:00:00 (CET)Le Havre/Octeville, France (7046): Vitesse du vent & gusts: 21.10.2020 18:00:00 - 27.10.2020 18:00:00 (CET)Le Havre/Octeville, France (7046): Direction du vent: 21.10.2020 18:00:00 - 27.10.2020 18:00:00 (CET)Le Havre/Octeville, France (7046): reduced air pressure: 21.10.2020 18:00:00 - 27.10.2020 18:00:00 (CET)Le Havre/Octeville, France (7046): visibility: 21.10.2020 18:00:00 - 27.10.2020 18:00:00 (CET)Le Havre/Octeville, France (7046): Quantités de précipitations: 21.10.2020 18:00:00 - 27.10.2020 18:00:00 (CET)
Date & Time tt [°C] td [°C] ff [km/h] ff [knt] fx [km/h] fx [knt] dd ppp [hPa] vv [km] rr [mm]
27.10.2020 18:00:00 - - - - - - - - - -
27.10.2020 17:00:00 13,3 12,4 26 14 48 26 S 998,9 3,6 0,4
27.10.2020 16:00:00 13,0 11,6 25 13 54 29 S 999,0 40 0,0
27.10.2020 15:00:00 12,1 10,8 30 16 52 28 S 999,9 3,9 0,2
27.10.2020 14:00:00 11,7 10,1 26 14 51 28 S 1000,6 32 0,0
27.10.2020 13:00:00 10,7 9,6 27 15 46 25 S 1001,4 11 0,6
27.10.2020 12:00:00 10,2 9,0 28 15 51 28 S 1002,6 4,5 0,4
27.10.2020 11:00:00 10,3 8,6 25 13 47 25 S 1003,6 20 0,0
27.10.2020 10:00:00 9,9 8,2 20 11 40 21 S 1004,3 19 0,2
27.10.2020 09:00:00 9,9 7,7 26 14 46 25 SSW 1004,7 29 0,0
27.10.2020 08:00:00 9,9 7,3 23 13 40 22 SSW 1005,0 46 0,0
27.10.2020 07:00:00 9,9 7,8 26 14 43 23 SSW 1005,1 20 0,0
27.10.2020 06:00:00 9,8 8,2 20 11 40 21 SSW 1005,3 17 0,0
27.10.2020 05:00:00 9,9 8,3 27 14 50 27 SW 1005,1 20 0,0
27.10.2020 04:00:00 10,1 8,4 27 14 40 22 SW 1005,1 38 0,0
27.10.2020 03:00:00 10,3 8,7 27 15 43 23 SW 1005,5 39 0,0
27.10.2020 02:00:00 10,3 8,6 22 12 39 21 SW 1005,7 45 0,0
27.10.2020 01:00:00 10,7 8,5 26 14 42 23 SW 1005,6 44 0,0
27.10.2020 00:00:00 11,1 9,0 26 14 46 25 SW 1005,5 48 0,0
26.10.2020 23:00:00 10,9 9,0 28 15 51 28 SW 1005,5 44 0,0
26.10.2020 22:00:00 10,9 8,8 28 15 48 26 SW 1005,1 41 0,0
26.10.2020 21:00:00 11,1 9,0 29 15 43 23 WSW 1004,6 44 0,0
26.10.2020 20:00:00 11,3 9,2 29 16 42 23 SW 1004,2 20 0,0
26.10.2020 19:00:00 11,6 9,2 30 16 50 27 WSW 1003,7 40 0,0
26.10.2020 18:00:00 11,5 9,2 27 14 44 24 SW 1003,1 20 0,0
26.10.2020 17:00:00 11,6 9,3 31 17 46 25 SW 1002,9 20 1,6
26.10.2020 16:00:00 10,8 9,4 26 14 47 26 SW 1003,0 6 1,0
26.10.2020 15:00:00 11,1 8,8 28 15 59 32 SW 1002,4 12 0,4
26.10.2020 14:00:00 11,6 8,6 37 20 56 30 SW 1002,3 7 0,2
26.10.2020 13:00:00 11,4 8,8 34 18 51 28 SW 1002,6 9 0,2
26.10.2020 12:00:00 11,3 8,3 32 17 56 30 SW 1002,6 19 0,0
26.10.2020 11:00:00 10,2 8,0 29 16 46 25 SSW 1002,7 30 0,0
26.10.2020 10:00:00 10,1 7,7 29 16 45 25 SW 1002,4 32 0,0
26.10.2020 09:00:00 9,4 7,2 28 15 50 27 SSW 1001,9 24 0,0
26.10.2020 08:00:00 9,6 7,4 28 15 44 24 SW 1001,4 51 0,0
26.10.2020 07:00:00 9,4 7,2 31 17 49 26 SW 1000,8 47 0,0
26.10.2020 06:00:00 9,2 7,1 29 16 44 24 SW 1000,5 48 0,0
26.10.2020 05:00:00 9,3 6,7 29 16 43 23 SW 1000,7 60 0,0
26.10.2020 04:00:00 9,3 7,1 26 14 52 28 SW 1000,5 56 0,0
26.10.2020 03:00:00 9,4 7,2 31 17 53 28 SW 1000,5 60 0,2
26.10.2020 02:00:00 9,5 6,6 33 18 51 27 SW 1000,4 15 0,0
26.10.2020 01:00:00 9,6 6,9 25 13 44 24 SSW 1000,9 60 0,0
26.10.2020 00:00:00 9,9 7,3 23 12 49 26 SW 1000,8 60 0,0
25.10.2020 23:00:00 10,0 7,2 23 13 45 24 SSW 1000,8 60 0,0
25.10.2020 22:00:00 10,2 7,1 21 11 42 23 SSW 1000,7 60 0,0
25.10.2020 21:00:00 10,3 7,5 19 10 32 18 S 1000,5 60 0,0
25.10.2020 20:00:00 10,3 7,2 15 8 30 16 S 1000,6 60 0,0
25.10.2020 19:00:00 10,5 7,4 14 8 30 16 S 1000,5 60 0,0
25.10.2020 18:00:00 10,8 7,7 22 12 42 23 S 1000,3 60 0,0
25.10.2020 17:00:00 11,1 8,0 18 10 34 18 SSW 999,9 59 0,0
25.10.2020 16:00:00 11,8 7,9 18 10 32 17 SSW 999,9 60 0,0
25.10.2020 15:00:00 12,0 7,5 21 11 40 22 SW 1000,0 53 0,0
25.10.2020 14:00:00 12,2 8,3 25 13 46 25 SSW 1000,2 40 2,2
25.10.2020 13:00:00 14,7 8,2 27 15 48 26 SW 999,8 20 0,0
25.10.2020 12:00:00 13,6 9,2 22 12 37 20 SSW 1000,6 20 0,0
25.10.2020 11:00:00 12,8 9,4 21 11 42 23 SSW 1001,0 52 0,0
25.10.2020 10:00:00 12,2 9,0 24 13 41 22 SSW 1001,1 60 0,0
25.10.2020 09:00:00 11,6 9,5 20 11 35 19 S 1000,9 51 0,0
25.10.2020 08:00:00 11,7 9,6 22 12 46 25 SSW 1001,0 59 0,0
25.10.2020 07:00:00 11,5 9,4 23 12 39 21 S 1001,1 60 0,0
25.10.2020 06:00:00 11,5 9,6 19 11 41 22 S 1000,7 60 0,0
25.10.2020 05:00:00 11,3 9,6 21 12 36 19 SSW 1001,3 60 0,0
25.10.2020 04:00:00 11,4 9,5 24 13 38 20 SW 1001,2 60 0,0
25.10.2020 03:00:00 11,3 9,6 21 11 44 24 SSW 1000,7 60 1,0
25.10.2020 02:00:00 11,3 9,9 27 14 47 26 SW 1001,8 8 1,8
25.10.2020 01:00:00 - - - - - - - - - -
25.10.2020 00:00:00 14,0 12,2 29 15 57 31 S 1000,5 11 0,6
24.10.2020 23:00:00 14,1 12,1 29 15 65 35 S 1001,6 19 0,2
24.10.2020 22:00:00 14,6 11,9 35 19 73 39 S 1002,3 46 0,0
24.10.2020 21:00:00 14,8 12,3 40 21 73 39 S 1002,3 54 0,0
24.10.2020 20:00:00 15,5 12,3 37 20 70 38 S 1003,0 60 0,0
24.10.2020 19:00:00 16,0 12,4 34 18 59 32 S 1003,7 60 0,0
24.10.2020 18:00:00 15,9 12,5 30 16 55 30 S 1004,4 60 0,0
24.10.2020 17:00:00 15,8 13,5 28 15 66 36 S 1005,0 51 0,0
24.10.2020 16:00:00 16,3 13,2 29 16 51 28 S 1005,9 47 0,0
24.10.2020 15:00:00 16,9 12,8 26 14 46 25 SSW 1006,8 36 0,0
24.10.2020 14:00:00 16,3 12,5 26 14 48 26 S 1007,3 50 0,0
24.10.2020 13:00:00 16,0 12,2 27 15 48 26 S 1008,4 60 0,0
24.10.2020 12:00:00 15,6 12,3 23 12 43 23 SSW 1009,5 51 0,0
24.10.2020 11:00:00 14,5 12,2 21 11 40 21 SSW 1010,1 11 0,0
24.10.2020 10:00:00 14,3 12,2 23 12 35 19 SSW 1010,4 38 0,0
24.10.2020 09:00:00 13,5 12,2 22 12 39 21 S 1010,4 19 0,0
24.10.2020 08:00:00 13,1 11,5 16 9 34 18 S 1010,4 53 0,0
24.10.2020 07:00:00 12,9 11,1 18 10 31 17 S 1011,0 60 0,0
24.10.2020 06:00:00 12,8 11,4 19 10 34 19 SSW 1011,6 60 0,0
24.10.2020 05:00:00 12,6 11,5 19 10 29 16 SW 1012,0 60 0,0
24.10.2020 04:00:00 12,5 11,9 15 8 29 16 SW 1012,1 56 0,2
24.10.2020 03:00:00 12,3 11,7 20 11 33 18 SW 1012,5 3,3 0,4
24.10.2020 02:00:00 12,5 11,1 18 10 30 16 SSW 1012,8 13 0,0
24.10.2020 01:00:00 12,1 10,8 13 7 34 18 SSW 1013,3 7 0,0
24.10.2020 00:00:00 12,8 10,0 19 10 37 20 SSW 1013,6 60 0,0
23.10.2020 23:00:00 13,2 9,8 19 10 38 20 SSW 1013,7 60 0,0
23.10.2020 22:00:00 13,5 9,7 23 12 38 21 SSW 1013,6 60 0,0
23.10.2020 21:00:00 13,6 10,2 18 10 31 17 SSW 1013,3 60 0,0
23.10.2020 20:00:00 13,6 9,2 18 10 27 15 SW 1013,0 60 0,0
23.10.2020 19:00:00 13,1 9,2 19 11 37 20 SW 1013,0 60 0,0
23.10.2020 18:00:00 13,3 9,4 27 15 39 21 WSW 1012,8 60 0,0
23.10.2020 17:00:00 14,2 11,4 25 13 37 20 W 1012,0 25 0,0
23.10.2020 16:00:00 14,7 12,6 18 10 31 17 SW 1011,7 45 0,0
23.10.2020 15:00:00 14,8 12,3 23 12 36 19 WSW 1011,4 48 0,2
23.10.2020 14:00:00 15,4 11,4 23 12 38 20 SW 1011,1 39 0,0
23.10.2020 13:00:00 16,0 11,8 17 9 37 20 SW 1011,0 18 0,0
23.10.2020 12:00:00 15,4 11,2 22 12 34 19 SSW 1011,2 18 0,0
23.10.2020 11:00:00 14,6 11,6 16 9 26 14 S 1011,2 20 0,0
23.10.2020 10:00:00 13,6 11,6 12 7 22 12 SSW 1011,7 18 0,0
23.10.2020 09:00:00 12,5 11,7 10 6 16 9 S 1011,6 10 0,0
23.10.2020 08:00:00 12,3 11,7 9 5 15 8 SSW 1011,1 8 0,0
23.10.2020 07:00:00 12,5 11,9 8 4 15 8 S 1010,5 6 0,0
23.10.2020 06:00:00 12,6 11,5 7 4 16 9 SSW 1010,6 11 0,0
23.10.2020 05:00:00 13,2 12,1 10 5 17 9 S 1010,3 15 0,0
23.10.2020 04:00:00 12,0 11,2 8 5 13 7 SSE 1011,0 3,9 0,0
23.10.2020 03:00:00 11,8 11,2 6 4 9 5 S 1011,3 2,7 0,0
23.10.2020 02:00:00 11,8 11,0 6 3 9 5 SSE 1011,7 6 0,2
23.10.2020 01:00:00 11,7 10,8 5 3 11 6 SE 1011,8 11 0,0
23.10.2020 00:00:00 11,4 10,6 7 4 9 5 SE 1012,0 10 0,0
22.10.2020 23:00:00 10,6 9,8 6 4 8 5 ESE 1012,1 0,9 0,0
22.10.2020 22:00:00 10,7 9,5 2 1 5 3 ESE 1012,5 16 0,0
22.10.2020 21:00:00 11,7 10,6 4 2 8 4 NNW 1012,1 46 0,0
22.10.2020 20:00:00 12,3 11,2 0 0 6 4 N 1012,0 7 0,0
22.10.2020 19:00:00 13,6 11,6 3 2 7 4 SSW 1011,8 44 0,0
22.10.2020 18:00:00 16,1 11,9 4 2 13 7 S 1011,3 19 0,0
22.10.2020 17:00:00 17,0 11,7 7 4 17 9 SSW 1011,3 38 0,0
22.10.2020 16:00:00 17,6 11,4 10 5 20 11 SSW 1011,2 37 0,0
22.10.2020 15:00:00 17,3 11,3 14 7 21 12 SSW 1011,2 19 0,0
22.10.2020 14:00:00 16,8 10,2 13 7 22 12 SSW 1011,4 40 0,0
22.10.2020 13:00:00 16,3 10,8 16 8 23 13 SSW 1011,5 19 0,0
22.10.2020 12:00:00 15,5 11,1 13 7 26 14 S 1011,9 39 0,0
22.10.2020 11:00:00 15,3 11,1 15 8 24 13 S 1011,5 60 0,0
22.10.2020 10:00:00 13,6 11,5 13 7 21 11 S 1011,4 45 0,0
22.10.2020 09:00:00 13,0 11,6 12 6 21 12 S 1011,1 19 0,0
22.10.2020 08:00:00 12,8 11,2 10 6 22 12 S 1010,6 20 0,0
22.10.2020 07:00:00 12,7 10,9 9 5 19 10 S 1009,8 40 0,0
22.10.2020 06:00:00 12,3 10,9 10 6 21 12 S 1009,9 39 0,0
22.10.2020 05:00:00 12,8 10,7 13 7 20 11 S 1009,5 47 0,0
22.10.2020 04:00:00 13,1 10,8 12 6 24 13 SSW 1009,7 49 0,0
22.10.2020 03:00:00 12,7 10,6 13 7 27 15 SSW 1009,7 50 0,0
22.10.2020 02:00:00 13,0 10,7 16 9 29 16 SSW 1009,8 50 0,0
22.10.2020 01:00:00 13,1 10,6 16 9 37 20 SSW 1009,3 58 0,0
22.10.2020 00:00:00 13,4 11,1 16 9 28 15 SSW 1009,0 60 0,0
21.10.2020 23:00:00 13,8 11,5 15 8 37 20 SSW 1008,5 60 0,0
21.10.2020 22:00:00 14,4 11,4 21 11 33 18 SSW 1007,9 60 0,0
21.10.2020 21:00:00 15,1 11,9 21 11 37 20 SSW 1006,8 60 0,0
21.10.2020 20:00:00 15,5 12,6 22 12 39 21 SSW 1006,2 60 0,0
21.10.2020 19:00:00 16,0 13,1 23 12 42 23 SSW 1005,1 60 0,0
21.10.2020 18:00:00 16,3 13,2 23 12 43 23 SSW 1003,7 60 0,0

tt = Température de l'air
td = dewpoint
ff = Vitesse du vent
fx = gusts
dd = Direction du vent
ppp = reduced air pressure
vv = visibility
rr = Quantités de précipitations

stations d'obs. à proximité